Date String (YYYY-MM-DD hh:mm:ss) UTC,Instrument flags,Ambient pressure (hPa),Sample flow (lpm),Bypass flow (lpm),Sample temperature (°C),Ambient temperature (°C),ASC tube jacket temperature (°C),LED temperature (°C),Box temperature (°C),Sample RH (%),Span deviation,Mass concentration (μg/m³),Mass concentration (μg/m³),Mass concentration (μg/m³)
DateTimeUTC,F1_M11,P_M11,Q1_M11,Q2_M11,T1_M11,T2_M11,T3_M11,T4_M11,T5_M11,U1_M11,ZSPAN_M11,X0_M11,X2_M11,X1_M11
2023-02-13 21:00:00,,0812.5,5.02,0.00,26.0,24.8,00.0,34.7,27.9,07.8,0000.0,0017.74,0005.82,0004.76
2023-02-13 21:01:00,,0812.5,5.00,0.00,26.0,24.8,00.0,34.7,27.9,07.9,0000.0,0017.73,0005.81,0004.72
2023-02-13 21:02:00,,0812.5,4.99,0.00,26.0,24.8,00.0,34.8,27.9,08.2,0000.0,0017.13,0005.82,0004.72
2023-02-13 21:03:00,,0812.5,4.99,0.00,26.1,24.9,00.0,34.8,28.0,08.2,0000.0,0016.71,0005.84,0004.74
2023-02-13 21:04:00,,0812.4,5.01,0.00,26.1,24.9,00.0,34.8,28.0,08.2,0000.0,0017.12,0005.88,0004.76
2023-02-13 21:05:00,,0812.5,4.98,0.00,26.1,24.9,00.0,34.8,28.0,08.3,0000.0,0017.14,0005.87,0004.76
2023-02-13 21:06:00,,0812.4,5.00,0.00,26.1,24.9,00.0,34.8,28.0,08.3,0000.0,0017.61,0005.87,0004.79
2023-02-13 21:07:00,,0812.4,5.01,0.00,26.1,25.0,00.0,34.8,28.0,08.2,0000.0,0016.52,0005.91,0004.81
2023-02-13 21:08:00,,0812.4,4.99,0.00,26.1,25.0,00.0,34.8,28.0,08.2,0000.0,0015.59,0005.99,0004.84
2023-02-13 21:09:00,,0812.4,5.00,0.00,26.2,24.9,00.0,34.8,28.0,07.9,0000.0,0016.10,0006.00,0004.83
2023-02-13 21:10:00,,0812.4,4.99,0.00,26.2,24.9,00.0,34.8,28.0,07.9,0000.0,0016.47,0006.02,0004.85
2023-02-13 21:11:00,,0812.4,5.01,0.00,26.1,24.9,00.0,34.9,28.0,07.8,0000.0,0016.08,0006.06,0004.86
2023-02-13 21:12:00,,0812.4,5.02,0.00,26.1,24.9,00.0,34.9,28.0,07.9,0000.0,0016.32,0006.05,0004.87
2023-02-13 21:13:00,,0812.3,4.98,0.00,26.2,24.9,00.0,34.9,28.0,07.9,0000.0,0016.71,0006.08,0004.87
2023-02-13 21:14:00,,0812.3,5.02,0.00,26.2,24.9,00.0,34.9,28.1,08.2,0000.0,0017.00,0006.12,0004.88
2023-02-13 21:15:00,,0812.3,4.99,0.00,26.2,24.9,00.0,34.9,28.1,08.4,0000.0,0017.64,0006.13,0004.89
2023-02-13 21:16:00,,0812.3,4.98,0.00,26.2,24.9,00.0,34.9,28.1,08.5,0000.0,0017.26,0006.14,0004.90
2023-02-13 21:17:00,,0812.3,5.01,0.00,26.2,24.9,00.0,34.9,28.1,08.5,0000.0,0016.86,0006.16,0004.92
2023-02-13 21:18:00,,0812.3,4.99,0.00,26.2,24.9,00.0,34.9,28.1,08.5,0000.0,0017.75,0006.25,0004.96
2023-02-13 21:19:00,,0812.2,5.01,0.00,26.2,25.0,00.0,34.9,28.1,08.4,0000.0,0018.15,0006.26,0004.98
2023-02-13 21:20:00,,0812.2,4.99,0.00,26.2,25.0,00.0,34.9,28.1,08.4,0000.0,0018.10,0006.30,0005.03
2023-02-13 21:21:00,,0812.2,5.01,0.00,26.2,25.0,00.0,34.9,28.1,08.4,0000.0,0018.58,0006.34,0005.07
2023-02-13 21:22:00,,0812.1,5.00,0.00,26.2,25.0,00.0,35.0,28.1,08.6,0000.0,0018.96,0006.38,0005.12
2023-02-13 21:23:00,,0812.1,4.99,0.00,26.2,25.0,00.0,35.0,28.1,08.7,0000.0,0019.14,0006.44,0005.19
2023-02-13 21:24:00,,0812.1,4.99,0.00,26.2,25.0,00.0,35.0,28.1,08.5,0000.0,0018.82,0006.54,0005.27
2023-02-13 21:25:00,,0812.1,4.99,0.00,26.2,25.0,00.0,35.0,28.1,08.6,0000.0,0018.70,0006.61,0005.33
2023-02-13 21:26:00,,0812.2,4.99,0.00,26.3,25.0,00.0,35.0,28.1,08.4,0000.0,0018.58,0006.72,0005.40
2023-02-13 21:27:00,,0812.2,5.01,0.00,26.3,25.0,00.0,35.0,28.2,08.4,0000.0,0020.57,0006.82,0005.46
2023-02-13 21:28:00,,0812.1,4.98,0.00,26.3,25.0,00.0,35.0,28.2,08.3,0000.0,0020.69,0006.90,0005.51
2023-02-13 21:29:00,,0812.2,4.97,0.00,26.3,25.0,00.0,35.0,28.2,08.2,0000.0,0020.11,0006.93,0005.52
2023-02-13 21:30:00,,0812.1,4.99,0.00,26.3,25.0,00.0,35.0,28.2,08.4,0000.0,0020.05,0007.02,0005.56
2023-02-13 21:31:00,,0812.1,4.99,0.00,26.3,25.0,00.0,35.0,28.2,08.3,0000.0,0020.00,0007.08,0005.60
2023-02-13 21:32:00,,0812.1,4.99,0.00,26.3,25.0,00.0,35.0,28.2,08.3,0000.0,0019.61,0007.09,0005.63
2023-02-13 21:33:00,,0812.0,5.00,0.00,26.3,25.1,00.0,35.0,28.2,08.2,0000.0,0019.53,0007.11,0005.64
2023-02-13 21:34:00,,0812.0,5.00,0.00,26.3,25.1,00.0,35.1,28.2,08.3,0000.0,0019.08,0007.13,0005.66
2023-02-13 21:35:00,,0812.1,4.99,0.00,26.3,25.1,00.0,35.1,28.2,08.5,0000.0,0018.33,0007.11,0005.67
2023-02-13 21:36:00,,0812.1,5.01,0.00,26.3,25.1,00.0,35.1,28.2,09.7,0000.0,0018.14,0007.14,0005.73
2023-02-13 21:37:00,,0812.1,5.00,0.00,26.3,25.0,00.0,35.1,28.2,09.9,0000.0,0017.81,0007.20,0005.81
2023-02-13 21:38:00,,0812.0,5.01,0.00,26.3,25.0,00.0,35.1,28.2,10.3,0000.0,0016.38,0007.28,0005.91
2023-02-13 21:39:00,,0812.0,4.99,0.00,26.3,25.0,00.0,35.1,28.2,10.8,0000.0,0016.19,0007.30,0005.98
2023-02-13 21:40:00,,0812.1,5.01,0.00,26.3,25.0,00.0,35.1,28.2,10.9,0000.0,0017.18,0007.32,0006.05
2023-02-13 21:41:00,,0812.1,5.00,0.00,26.3,25.0,00.0,35.1,28.2,11.1,0000.0,0017.11,0007.30,0006.10
2023-02-13 21:42:00,,0812.1,4.99,0.00,26.3,25.0,00.0,35.1,28.2,11.0,0000.0,0016.66,0007.32,0006.16
2023-02-13 21:43:00,,0812.0,5.01,0.00,26.3,24.9,00.0,35.1,28.2,11.1,0000.0,0017.34,0007.47,0006.23
2023-02-13 21:44:00,,0812.1,5.00,0.00,26.3,24.9,00.0,35.1,28.2,11.2,0000.0,0018.68,0007.57,0006.31
2023-02-13 21:45:00,,0812.1,4.97,0.00,26.3,24.9,00.0,35.1,28.2,11.3,0000.0,0018.86,0007.62,0006.35
2023-02-13 21:46:00,,0812.0,5.02,0.00,26.3,24.9,00.0,35.1,28.2,11.0,0000.0,0018.90,0007.61,0006.39
2023-02-13 21:47:00,,0812.1,4.98,0.00,26.3,24.9,00.0,35.1,28.2,11.3,0000.0,0018.76,0007.62,0006.39
2023-02-13 21:48:00,,0812.0,5.01,0.00,26.3,24.9,00.0,35.1,28.2,11.1,0000.0,0018.08,0007.55,0006.37
2023-02-13 21:49:00,,0812.1,5.00,0.00,26.3,25.0,00.0,35.1,28.2,11.0,0000.0,0017.55,0007.50,0006.33
2023-02-13 21:50:00,,0812.0,4.99,0.00,26.3,25.0,00.0,35.1,28.2,11.1,0000.0,0017.84,0007.52,0006.33
2023-02-13 21:51:00,,0812.0,5.02,0.00,26.3,25.0,00.0,35.1,28.2,11.1,0000.0,0017.20,0007.49,0006.34
2023-02-13 21:52:00,,0812.0,5.00,0.00,26.3,25.0,00.0,35.1,28.2,10.9,0000.0,0016.91,0007.47,0006.36
2023-02-13 21:53:00,,0812.0,5.01,0.00,26.3,25.0,00.0,35.1,28.2,10.5,0000.0,0017.22,0007.45,0006.35
2023-02-13 21:54:00,,0812.0,4.99,0.00,26.3,25.0,00.0,35.1,28.2,10.3,0000.0,0016.80,0007.35,0006.32
2023-02-13 21:55:00,,0812.0,5.01,0.00,26.3,25.0,00.0,35.1,28.2,10.2,0000.0,0015.20,0007.26,0006.29
2023-02-13 21:56:00,,0812.0,5.00,0.00,26.3,25.0,00.0,35.1,28.2,10.3,0000.0,0015.25,0007.22,0006.27
2023-02-13 21:57:00,,0812.0,5.00,0.00,26.3,25.0,00.0,35.1,28.2,10.1,0000.0,0015.69,0007.22,0006.24
2023-02-13 21:58:00,,0811.9,5.00,0.00,26.3,25.0,00.0,35.1,28.2,10.0,0000.0,0016.67,0007.20,0006.21
2023-02-13 21:59:00,,0811.8,5.00,0.00,26.3,25.0,00.0,35.1,28.2,09.9,0000.0,0017.37,0007.17,0006.19
